{"data":{"norad_id":44538,"epoch":"2026-05-25T03:53:54.836736Z","epoch_age_seconds":64105,"freshness":"FRESH","line1":"1 44538U 19060E   26145.16244024  .00027849  00000+0  52787-3 0  9992","line2":"2 44538  97.5363 294.0378 0007484  35.8999 324.2752 15.48281131372515","mean_motion":15.48281131,"eccentricity":0.0007484,"inclination_deg":97.5363,"raan_deg":294.0378,"arg_perigee_deg":35.8999,"mean_anomaly_deg":324.2752,"bstar":0.00052787,"rev_number":37251,"period_min":93.006365004909,"perigee_km":416.66510957035,"apogee_km":426.84318664083,"semimajor_km":6799.8911481056,"source":"CELESTRAK","updated_at":"2026-05-25T13:37:56.001553Z"}}